THOR ABLESTAR R/B, 1428

Orbit data source: Space-Track

THOR ABLESTAR R/B, 1428 is space debris in LEO originally from a launch on Thu, 24 Jun 1965 UTC launched from the Air Force Western Test Range (AFWTR). Debris objects in space refer to the collection of defunct objects orbiting the Earth. Examples of debris include non-operational satellites, rocket bodies, and fragments generated from explosions, collisions, or faulty payload assembly.

Loading next visibility...
Identifier
1428, 1965-048B
Orbit
LEO
Country
Flag of USUS
Related business
Manufacturer
Aerojet
Mission
Spacecraft
Bus & Motor
ABLESTAR, Unknown motor
Mass
~600 kg wet, 600 kg dry
Launch date (UTC)
1965-06-24 (60 years ago)
Launch vehicle
Unknown
Launch site
Air Force Western Test Range (AFWTR)
Object type
Payload
Rocket body
Debris
Shape & HBR
Cyl, 2.4 m
Radar Cross Section
6.048 m², Large (>1 m²)

Expand to show TLE details & history
Last TLE update: 12 hours ago

TLE from 12 hours ago
0 THOR ABLESTAR R/B
1 01428U 65048B   25257.62840580  .00000044  00000-0  52010-4 0  9992
2 01428  89.8767 288.4779 0054896 259.6546 219.0273 13.52664034971393
Epoch: 2025-09-14T15:04Z
TLE epoch observation values (Epoch: 2025-09-14T15:04:54.261Z)
Latitude
61.7989°
Longitude
-111.82164°
Altitude
1,104.964 km
Speed
7.29 km/s
True Right ascension
07h 12m 59s
True Declination
61° 39' 44"
Sunlit
Object was in daylight at epoch
Visualization orbit readout
Latitude
Unknown
Longitude
Unknown
Altitude
Unknown
Speed
Unknown
Apparent Right ascension
Unknown
Apparent Declination
Unknown
Sunlit
N/A
Visualization observer readout
Local Sidereal Time
19:56:05
Azimuth
Unknown
Elevation
Unknown
Doppler factor
Unknown
Orbital elements
Apogee altitude
1,100.349 km
Perigee altitude
1,018.689 km
Semi-major axis
7,437.656 km
Eccentricity
0.00549
Inclination
89.8767°
RAAN
288.4779°
Arg. of periapsis
259.6546°
True anomaly
218.63329°
Mean anomaly
219.0273°
Eccentric anomaly
218.83009°
Mean motion
3.38368 °/min
Orbital period
106.39 mins
BSTAR
0.00005201
Loading maneuver chart data...
Computing Atmospheric mass density...

Documentation

Showing up to 5 results
|